[[{"header":{"parameterUnit":"m.s-1","parameterCategory":1,"la1":30.2991,"la2":30.254,"lo1":-89.0895,"lo2":-89.0444,"dy":0.0017,"dx":0.0017,"nx":28,"ny":28,"refTime":"2023-09-24T09:00:00:Z","depth":0,"parameterNumber":2,"parameterNumberName":"U-component_of_WINDS"},"data":[0,0,0,0,0,0,0,0,0,0,0,0,0,0,0,0,0,0,0,0,0,0,0,0,0,0,0,0,0,0,0,0,0,0,0,0,0,0,0,0,0,0,0,0,0,0,0,0,0,0,0,0,0,0,0,0,0,0,-1.7907,-1.7907,0,-1.7873,-1.7873,-1.7872,-1.7762,-1.7759,-1.7757,-1.7755,-1.7723,-1.7724,-1.7725,0,0,0,0,0,0,0,0,0,0,0,0,0,-1.7882,-1.7883,-1.7907,-1.7907,-1.7907,-1.7873,-1.7873,-1.7872,-1.7762,-1.7759,-1.7756,-1.7754,-1.7722,-1.7724,-1.7726,0,0,0,0,0,0,0,0,0,0,0,0,0,-1.7875,-1.7883,-1.7908,-1.7848,-1.7842,-1.7873,-1.7873,-1.7872,-1.7763,-1.7759,-1.7756,-1.7752,-1.7722,-1.7724,-1.7726,-1.7813,0,0,-1.7732,-1.7733,0,0,0,0,0,0,0,0,-1.7875,-1.7876,-1.7857,-1.7852,-1.7845,-1.7818,-1.7852,-1.7853,-1.7764,-1.7793,-1.7755,-1.775,-1.7758,-1.7757,-1.7758,-1.7812,-1.781,-1.7733,-1.7734,-1.7735,-1.7736,0,0,0,0,0,0,0,-1.7876,-1.7877,-1.7894,-1.7857,-1.785,-1.7824,-1.7819,-1.7851,-1.7797,-1.779,-1.7782,-1.7779,-1.7754,-1.7757,-1.7757,-1.781,-1.7733,-1.7735,-1.7736,-1.7737,-1.7936,-1.794,0,0,0,0,0,0,-1.7885,-1.7878,-1.7895,-1.7893,-1.7852,-1.7827,-1.7822,-1.7831,-1.7796,-1.7787,-1.7783,-1.7774,-1.7755,-1.7754,-1.7755,-1.7856,-1.7735,-1.7737,-1.7738,-1.7932,-1.7937,-1.7941,0,0,0,0,0,0,-1.7884,-1.7887,-1.7896,-1.7883,-1.7882,-1.7832,-1.7843,-1.7832,-1.7834,-1.779,-1.778,-1.7795,-1.7752,-1.7752,-1.78,-1.7854,-1.7738,-1.774,-1.7927,-1.7933,-1.7939,-1.8059,0,0,0,0,0,0,-1.7884,-1.7888,-1.7919,-1.7885,-1.7883,-1.7941,-1.7846,-1.7834,-1.7838,-1.7827,-1.7799,-1.7791,-1.7749,-1.7797,-1.7802,-1.7855,-1.7742,-1.7922,-1.793,-1.7937,-1.805,-1.8069,-1.8085,0,0,0,0,0,-1.7884,-1.7955,-1.7921,-1.7924,-1.7922,-1.7944,-1.7943,-1.7892,-1.7843,-1.7875,-1.7847,-1.7792,-1.7847,-1.7803,-1.7808,-1.7862,-1.7918,-1.7928,-1.7936,-1.8043,-1.8065,-1.8084,0,0,0,0,0,0,-1.7997,-1.7949,-1.7911,-1.7973,-1.7964,-1.7925,-1.7964,-1.7917,-1.7922,-1.7912,-1.7849,-1.7844,-1.7901,-1.7886,-1.7838,-1.7946,-1.7874,-1.7884,-1.7953,-1.7974,-1.7991,-1.7994,-1.7743,0,0,0,0,0,-1.803,-1.8051,-1.8008,-1.8066,-1.8063,-1.8015,-1.8023,-1.7984,-1.7972,-1.7968,-1.7943,-1.7934,-1.795,-1.7961,-1.7972,-1.8048,-1.8041,-1.8088,-1.8105,-1.8119,-1.8129,-1.8169,-1.819,-1.797,-1.797,-1.797,0,0,-1.8096,-1.8073,-1.809,-1.8089,-1.8077,-1.8101,-1.8012,-1.8041,-1.806,-1.7972,-1.8016,-1.7998,-1.7984,-1.8047,-1.8073,-1.8036,-1.8188,-1.813,-1.8142,-1.8144,-1.8181,-1.8202,-1.822,-1.7977,-1.7975,-1.7975,0,0,-1.8231,-1.8214,-1.8262,-1.8252,-1.8235,-1.8203,-1.8215,-1.8184,-1.8168,-1.8211,-1.8147,-1.8168,-1.8196,-1.8189,-1.8189,-1.8324,-1.8275,-1.833,-1.8419,-1.846,-1.8477,-1.8492,-1.8542,-1.856,-1.834,-1.834,-1.834,0,-1.8316,-1.8349,-1.8293,-1.8327,-1.8329,-1.8251,-1.8301,-1.8294,-1.8282,-1.8286,-1.8245,-1.8279,-1.8264,-1.8325,-1.8358,-1.836,-1.8373,-1.8333,-1.8479,-1.8493,-1.8507,-1.8553,-1.8572,-1.8347,-1.8346,-1.8345,-1.8345,0,-1.8456,-1.8481,-1.8522,-1.8512,-1.8519,-1.856,-1.8512,-1.8526,-1.8488,-1.8461,-1.8507,-1.8487,-1.8494,-1.8505,-1.8468,-1.8562,-1.854,-1.849,-1.8416,-1.8535,-1.8578,-1.8595,-1.8357,-1.8354,-1.8352,-1.8351,0,0,-1.866,-1.862,-1.8636,-1.8631,-1.8608,-1.8626,-1.8666,-1.8672,-1.8686,-1.8681,-1.8714,-1.874,-1.8694,-1.8694,-1.8656,-1.8692,-1.8802,-1.8637,-1.8636,-1.867,-1.8906,-1.8945,-1.8966,-1.8769,-1.8772,-1.8775,-1.8908,0,-1.8788,-1.8851,-1.8803,-1.8875,-1.8898,-1.8826,-1.886,-1.8851,-1.8827,-1.8844,-1.8818,-1.8838,-1.8776,-1.8776,-1.8808,-1.8782,-1.8849,-1.8772,-1.88,-1.8802,-1.8807,-1.8988,-1.9028,-1.9154,-1.8924,-1.8927,-1.8929,0,-1.8945,-1.8948,-1.9023,-1.8996,-1.9004,-1.9036,-1.9039,-1.9056,-1.9044,-1.9025,-1.9027,-1.898,-1.9019,-1.8947,-1.9,-1.8949,-1.8958,-1.8948,-1.8951,-1.8952,-1.8873,-1.8995,-1.9193,-1.9213,-1.8954,-1.8952,-1.895,0,-1.9088,-1.911,-1.9158,-1.9156,-1.9126,-1.9151,-1.914,-1.9124,-1.9132,-1.9135,-1.914,-1.9148,-1.9153,-1.9162,-1.9119,-1.9071,-1.9179,-1.9103,-1.9165,-1.9167,-1.9191,-1.9191,-1.9395,-1.9197,-1.9196,-1.9196,-1.9196,0,-1.9236,-1.9285,-1.9222,-1.9251,-1.9305,-1.925,-1.9305,-1.9287,-1.9274,-1.93,-1.9239,-1.9265,-1.9207,-1.9228,-1.9195,-1.9245,-1.9248,-1.9234,-1.9225,-1.924,-1.9242,-1.9246,-1.9236,-1.9201,-1.92,-1.9199,-1.9198,0,-1.9404,-1.9363,-1.9411,-1.9379,-1.9373,-1.9414,-1.9387,-1.9415,-1.9387,-1.9422,-1.9427,-1.9385,-1.9406,-1.9365,-1.9381,-1.9359,-1.943,-1.9407,-1.9434,-1.9427,-1.9492,-1.9487,-1.9707,-1.9733,-1.9518,-1.952,-1.9521,0,-1.9502,-1.9538,-1.951,-1.9523,-1.9516,-1.9537,-1.9545,-1.9493,-1.9504,-1.9495,-1.9524,-1.954,-1.9551,-1.9589,-1.9561,-1.9574,-1.9551,-1.9627,-1.9553,-1.9567,-1.9554,-1.9553,-1.9557,-1.9643,-1.9645,-1.9647,-1.9649,0,-1.968,-1.9658,-1.9671,-1.9678,-1.9689,-1.9693,-1.9691,-1.9706,-1.9651,-1.9667,-1.9688,-1.9696,-1.9713,-1.9731,-1.9738,-1.9728,-1.9681,-1.9673,-1.9688,-1.9704,-1.9719,-1.9713,-1.9477,-1.9668,-1.9666,-1.9665,-1.9664,-1.9663,-1.9816,-1.9845,-1.9831,-1.9849,-1.9842,-1.9843,-1.9868,-1.9844,-1.9861,-1.987,-1.9839,-1.9868,-1.9858,-1.9862,-1.9858,-1.9881,-1.9847,-1.9869,-1.9875,-1.9881,-1.9892,-1.9715,-1.9882,-1.9881,-1.9881,-1.988,-1.988,0,-1.9991,-1.9979,-1.9996,-1.9996,-2.0011,-1.9964,-1.9961,-1.9977,-2.0003,-1.9998,-2.0009,-2.0035,-2.0053,-2.0027,-2.0041,-2.0065,-2.0044,-2.007,-2.0068,-2.0067,-1.9921,-1.9907,-2.0087,-2.0087,-2.0087,-2.0087,-2.0087,-2.0087,-2.0084,-2.0133,-2.011,-2.0156,-2.0143,-2.017,-2.0173,-2.0175,-2.017,-2.0202,-2.0216,-2.0199,-2.0186,-2.0198,-2.0213,-2.0205,-2.0214,-2.0249,-2.0234,-2.0097,-2.0077,-2.0058,-2.0044,-2.0251,-2.0251,-2.0378,-2.0379,-2.038]},{"header":{"parameterUnit":"m.s-1","parameterCategory":1,"la1":30.2991,"la2":30.254,"lo1":-89.0895,"lo2":-89.0444,"dy":0.0017,"dx":0.0017,"nx":28,"ny":28,"refTime":"2023-09-24T09:00:00:Z","depth":0,"parameterNumber":3,"parameterNumberName":"V-component_of_WINDS"},"data":[0,0,0,0,0,0,0,0,0,0,0,0,0,0,0,0,0,0,0,0,0,0,0,0,0,0,0,0,0,0,0,0,0,0,0,0,0,0,0,0,0,0,0,0,0,0,0,0,0,0,0,0,0,0,0,0,0,0,-0.1299,-0.1298,0,-0.1176,-0.1175,-0.1173,-0.1091,-0.1091,-0.109,-0.109,-0.096,-0.0957,-0.0955,0,0,0,0,0,0,0,0,0,0,0,0,0,-0.1464,-0.1461,-0.13,-0.1298,-0.1297,-0.1176,-0.1174,-0.1173,-0.1091,-0.1091,-0.109,-0.1089,-0.0961,-0.0958,-0.0954,0,0,0,0,0,0,0,0,0,0,0,0,0,-0.1372,-0.146,-0.13,-0.1241,-0.1235,-0.1177,-0.1174,-0.1172,-0.1091,-0.1091,-0.109,-0.1089,-0.0962,-0.0958,-0.0954,-0.0943,0,0,-0.094,-0.0938,0,0,0,0,0,0,0,0,-0.1377,-0.1366,-0.1252,-0.1245,-0.1238,-0.1148,-0.1185,-0.1095,-0.1092,-0.1146,-0.109,-0.1089,-0.1023,-0.1014,-0.0992,-0.0937,-0.0931,-0.094,-0.0937,-0.0935,-0.0934,0,0,0,0,0,0,0,-0.1383,-0.137,-0.1251,-0.125,-0.1242,-0.1221,-0.1207,-0.1167,-0.1091,-0.1141,-0.1135,-0.1121,-0.1019,-0.0997,-0.0989,-0.0929,-0.094,-0.0936,-0.0933,-0.0932,-0.086,-0.0861,0,0,0,0,0,0,-0.1399,-0.1376,-0.1254,-0.1247,-0.1307,-0.1219,-0.1203,-0.1178,-0.1091,-0.1077,-0.1122,-0.1118,-0.1005,-0.0994,-0.0984,-0.0967,-0.0935,-0.0931,-0.0929,-0.086,-0.086,-0.0861,0,0,0,0,0,0,-0.1403,-0.1389,-0.1259,-0.131,-0.1292,-0.1217,-0.1189,-0.1176,-0.1153,-0.1077,-0.1062,-0.1114,-0.1004,-0.099,-0.0954,-0.0961,-0.0929,-0.0925,-0.0859,-0.086,-0.0861,-0.0932,0,0,0,0,0,0,-0.1408,-0.1391,-0.1386,-0.131,-0.1289,-0.1233,-0.1189,-0.1174,-0.1146,-0.1139,-0.1065,-0.1051,-0.1002,-0.0961,-0.095,-0.0954,-0.0922,-0.0858,-0.0859,-0.0861,-0.0929,-0.0935,-0.0941,0,0,0,0,0,-0.1414,-0.141,-0.1387,-0.1372,-0.1282,-0.1233,-0.1221,-0.1165,-0.1147,-0.1142,-0.1093,-0.1054,-0.0962,-0.0958,-0.0945,-0.0948,-0.0857,-0.0859,-0.086,-0.0926,-0.0934,-0.0941,0,0,0,0,0,0,-0.1487,-0.1399,-0.1372,-0.1343,-0.1297,-0.122,-0.1211,-0.1175,-0.1132,-0.1128,-0.1059,-0.1043,-0.1015,-0.0977,-0.0975,-0.0934,-0.0905,-0.0904,-0.0959,-0.0966,-0.0973,-0.0983,-0.0918,0,0,0,0,0,-0.1501,-0.1469,-0.1393,-0.1375,-0.1353,-0.1287,-0.1263,-0.1224,-0.1173,-0.1152,-0.11,-0.1051,-0.1012,-0.0987,-0.0946,-0.0923,-0.0906,-0.0918,-0.0925,-0.093,-0.093,-0.0917,-0.0922,-0.0867,-0.0867,-0.0867,0,0,-0.1527,-0.1474,-0.1458,-0.1389,-0.1348,-0.1317,-0.127,-0.1238,-0.1215,-0.1147,-0.1111,-0.1071,-0.1012,-0.0983,-0.0968,-0.0951,-0.0942,-0.0932,-0.0937,-0.0934,-0.0919,-0.0925,-0.0929,-0.0868,-0.0868,-0.0868,0,0,-0.1559,-0.1516,-0.1497,-0.1458,-0.1397,-0.1353,-0.1349,-0.1277,-0.1249,-0.1212,-0.1161,-0.1131,-0.1064,-0.1024,-0.0995,-0.1015,-0.0978,-0.1003,-0.1036,-0.1024,-0.1028,-0.1032,-0.104,-0.1044,-0.1003,-0.1003,-0.1004,0,-0.1599,-0.155,-0.1492,-0.1464,-0.1435,-0.1374,-0.1355,-0.1319,-0.1248,-0.1229,-0.1212,-0.1127,-0.1083,-0.1045,-0.105,-0.1028,-0.1021,-0.1012,-0.1032,-0.1035,-0.1038,-0.1045,-0.1048,-0.1007,-0.1007,-0.1006,-0.1006,0,-0.1603,-0.1571,-0.1563,-0.1498,-0.1468,-0.1444,-0.1382,-0.1359,-0.1323,-0.1281,-0.1244,-0.1189,-0.1137,-0.1125,-0.1088,-0.1082,-0.1074,-0.1045,-0.1015,-0.1048,-0.1053,-0.1055,-0.1012,-0.1011,-0.101,-0.1009,0,0,-0.1677,-0.1582,-0.158,-0.1551,-0.148,-0.1453,-0.1428,-0.1378,-0.136,-0.1313,-0.129,-0.1235,-0.1209,-0.1176,-0.1135,-0.1124,-0.1145,-0.1097,-0.1095,-0.1109,-0.1136,-0.116,-0.1164,-0.112,-0.112,-0.112,-0.1142,0,-0.17,-0.1652,-0.1599,-0.1569,-0.1539,-0.1481,-0.1458,-0.1413,-0.1373,-0.1341,-0.1296,-0.1259,-0.1227,-0.1207,-0.1194,-0.1146,-0.115,-0.1143,-0.1098,-0.1098,-0.1117,-0.1166,-0.119,-0.1213,-0.1144,-0.1144,-0.1144,0,-0.172,-0.1678,-0.1646,-0.158,-0.1565,-0.1546,-0.1497,-0.1468,-0.1415,-0.1386,-0.1351,-0.1308,-0.1278,-0.1251,-0.1209,-0.1206,-0.1184,-0.1158,-0.1157,-0.1152,-0.1124,-0.1164,-0.1219,-0.1223,-0.1147,-0.1147,-0.1146,0,-0.178,-0.1715,-0.1688,-0.1664,-0.1586,-0.1575,-0.1541,-0.1488,-0.1462,-0.1419,-0.1401,-0.1355,-0.133,-0.1294,-0.124,-0.1225,-0.1204,-0.1172,-0.118,-0.1182,-0.1179,-0.118,-0.1233,-0.1163,-0.1163,-0.1163,-0.1163,0,-0.1811,-0.1794,-0.1714,-0.1698,-0.1677,-0.1616,-0.1597,-0.1559,-0.1512,-0.1487,-0.1433,-0.141,-0.1339,-0.1308,-0.1264,-0.1237,-0.1225,-0.1202,-0.1191,-0.1208,-0.1211,-0.1193,-0.1191,-0.1164,-0.1164,-0.1164,-0.1163,0,-0.1875,-0.182,-0.1787,-0.1717,-0.1699,-0.1687,-0.1626,-0.1608,-0.1566,-0.1535,-0.1524,-0.1457,-0.1418,-0.136,-0.1302,-0.1273,-0.1253,-0.1234,-0.1272,-0.1265,-0.1277,-0.1278,-0.1322,-0.1325,-0.1253,-0.1253,-0.1254,0,-0.1899,-0.1885,-0.1814,-0.1794,-0.1764,-0.1732,-0.1706,-0.1645,-0.162,-0.156,-0.155,-0.1506,-0.1469,-0.1409,-0.1355,-0.1311,-0.1291,-0.131,-0.1284,-0.1302,-0.1294,-0.1296,-0.1295,-0.1316,-0.1318,-0.1318,-0.1319,0,-0.1949,-0.1924,-0.1889,-0.1845,-0.1816,-0.1778,-0.1737,-0.1724,-0.1655,-0.1629,-0.159,-0.1561,-0.1503,-0.1462,-0.1411,-0.1376,-0.1337,-0.1328,-0.1327,-0.1345,-0.1368,-0.1358,-0.129,-0.1327,-0.1326,-0.1326,-0.1325,-0.1325,-0.1995,-0.198,-0.1929,-0.1892,-0.1856,-0.182,-0.18,-0.1756,-0.1722,-0.1672,-0.1638,-0.1601,-0.1549,-0.1477,-0.1444,-0.1414,-0.1397,-0.1396,-0.1396,-0.1397,-0.1404,-0.1372,-0.1404,-0.1403,-0.1403,-0.1403,-0.1403,0,-0.2043,-0.2008,-0.1975,-0.1921,-0.1893,-0.1859,-0.1813,-0.1791,-0.1759,-0.1715,-0.168,-0.1635,-0.1595,-0.1538,-0.1493,-0.148,-0.1461,-0.147,-0.1471,-0.1464,-0.1421,-0.1426,-0.1487,-0.1487,-0.1487,-0.1487,-0.1487,-0.1487,-0.2066,-0.204,-0.2009,-0.1965,-0.1929,-0.1893,-0.187,-0.1836,-0.1801,-0.1754,-0.1721,-0.1685,-0.1635,-0.1587,-0.1549,-0.1533,-0.152,-0.1535,-0.1514,-0.1475,-0.1467,-0.146,-0.1465,-0.1532,-0.1532,-0.156,-0.1561,-0.1561]}]]